Location: Ferchesar
(52.6477°N, 12.4298°E)
Time: 21:59:17
(UTC+01:00)

TIGRISAT - Pass Details

Date: 25 October 2021
Orbit: 603 x 689 km, 97.7° (Epoch: 30 November)

Event Time Altitude Azimuth Distance (km) Brightness Sun altitude
Rises 06:56:24 0° 158° (SSE) 3,049 ? -9.3°
Reaches altitude 10° 06:58:39 10° 156° (SSE) 2,134 ? -9.0°
Maximum altitude 07:03:19 72° 73° (ENE) 721 ? -8.3°
Drops below altitude 10° 07:07:56 10° 349° (N) 2,118 ? -7.6°
Sets 07:10:10 0° 348° (NNW) 3,025 ? -7.3°
